{"data":{"norad_id":55158,"intl_designator":"2023-004U","name":"ONEWEB-0617","alt_names":[],"object_type":"PAYLOAD","status":"ACTIVE","operator":null,"country":"UK","launch_date":"2023-01-10","launch_site_code":"AFETR","launch_vehicle":null,"mission":null,"orbit_class":"UNKNOWN","rcs_meters":null,"size_class":null,"mass_kg":null,"dimensions":null,"purposes":["comms"],"wikipedia_slug":null,"has_3d_model":false,"image_url":null,"decayed_at":null,"tle_current":{"epoch":"2026-05-25T02:26:25.144224Z","epoch_age_seconds":63483,"freshness":"FRESH","line1":"1 55158U 23004U   26145.10167991  .00000120  00000+0  30348-3 0  9998","line2":"2 55158  87.8916  25.6609 0002042  92.5349 267.6012 13.11418062162834","mean_motion":13.11418062,"eccentricity":0.0002042,"inclination_deg":87.8916,"raan_deg":25.6609,"arg_perigee_deg":92.5349,"mean_anomaly_deg":267.6012,"bstar":0.00030348,"rev_number":16283,"period_min":109.80480151416,"perigee_km":1216.1273197131,"apogee_km":1219.2294507165,"semimajor_km":7595.8153852148,"source":"CELESTRAK","updated_at":"2026-05-25T13:38:22.643171Z"}}}